XJS A (43518 NORAD) Tracking and Keplerian Element Data

This shows tracking and keplerian element data for the satellite.

Feedback or suggestion? Click here.




ElementValue
Catalog43518
NameXJS A
Epoch Orbit37028
Epoch Day35.2103722
Epoch Year2025
RAAN54.2075
Inclination35.052
Eccentricity0.0002519
Argument of Perigee167.7851
Mean Anonmoly192.2933
Mean Motion15.45504575
Decay Rate0.00078072
L11 43518U 18054A 25035.21037220 .00078072 00000+0 15653-2 0 9996
L22 43518 35.0520 54.2075 0002519 167.7851 192.2933 15.45504575370283



Live tracking and technical data element details for XJS A (NORAD 43518). XJS A can be tracked NOW for your location showing map with azimuth and elevation plus other details from your city location.







IsCatalogInMostPopularTable: catalog: 43518, numindb: 517
Update: records affected: 1



GetName: 43518 XJS A

Hit Count: updated at: Thu, 15 May 2025 19:11:30 GMT